GW5510 Weather Reports


Display with metric or nautical units.
time (UTC)temp
F
wind
direction
speed
MPH
gust
MPH
rain 1hr
in
rain 24hr
in
rain mn
in
humidity
%
barometer
mb
20260505140223 33 284 1.0 3.0 0.00 0.02 0.02 96 1015.4
20260505130147 33 309 2.0 3.0 0.00 0.02 0.02 96 1014.5
20260505124637 34 354 2.0 3.0 0.00 0.02 0.02 96 1014.4
20260505124133 34 268 1.0 3.0 0.00 0.02 0.02 96 1014.3
20260505123629 35 9 2.0 3.0 0.00 0.02 0.02 96 1014.4
20260505123126 35 281 1.0 3.0 0.00 0.02 0.02 96 1014.0
20260505122623 35 262 2.0 3.0 0.00 0.02 0.02 96 1013.9
20260505122120 35 322 1.0 3.0 0.00 0.02 0.02 96 1013.8
20260505121616 36 317 2.0 3.0 0.00 0.02 0.02 96 1014.2
20260505121113 37 333 2.0 4.0 0.00 0.02 0.02 96 1013.9
20260505120609 37 322 1.0 1.0 0.00 0.02 0.02 96 1013.8
20260505120105 37 30 2.0 3.0 0.00 0.02 0.02 96 1013.9
20260505115600 37 299 1.0 3.0 0.00 0.02 0.02 96 1014.0
20260505115057 38 234 0.0 0.0 0.00 0.02 0.02 96 1014.2
20260505114555 38 234 1.0 1.0 0.00 0.02 0.02 96 1014.0
20260505114051 39 178 0.0 0.0 0.00 0.02 0.02 96 1013.9
20260505113547 39 223 0.0 0.0 0.00 0.02 0.02 96 1014.0
20260505113044 40 212 3.0 4.0 0.00 0.02 0.02 96 1013.9
20260505112540 40 239 0.0 0.0 0.00 0.02 0.02 96 1013.5
20260505112039 41 234 0.0 0.0 0.00 0.02 0.02 96 1013.7
20260505111538 41 220 0.0 0.0 0.00 0.02 0.02 96 1013.9
20260505111035 41 236 0.0 0.0 0.00 0.02 0.02 96 1013.8
20260505110531 41 237 0.0 0.0 0.00 0.02 0.02 96 1013.5
20260505102003 40 237 0.0 0.0 0.00 0.02 0.02 96 1013.3
20260505101501 40 225 0.0 0.0 0.00 0.02 0.02 96 1013.2
20260505100958 41 184 0.0 0.0 0.00 0.02 0.02 96 1012.9
20260505100455 41 189 3.0 4.0 0.00 0.02 0.02 96 1012.9
20260505095951 41 165 4.0 5.0 0.00 0.02 0.02 96 1012.8
20260505095448 41 184 2.0 3.0 0.00 0.02 0.02 96 1012.9
20260505094944 41 191 1.0 1.0 0.00 0.02 0.02 96 1013.0
20260505094441 41 176 3.0 4.0 0.00 0.02 0.02 96 1012.9
20260505093937 41 186 3.0 4.0 0.00 0.02 0.02 95 1012.9
20260505093434 41 190 1.0 3.0 0.00 0.02 0.02 95 1012.9
20260505092931 41 216 1.0 1.0 0.00 0.02 0.02 95 1012.7
20260505092429 41 220 2.0 4.0 0.00 0.02 0.02 95 1013.0
20260505091926 41 208 2.0 3.0 0.00 0.02 0.02 95 1012.9
20260505091423 41 212 1.0 1.0 0.00 0.02 0.02 95 1013.0
20260505090921 40 222 1.0 1.0 0.00 0.02 0.02 95 1012.8
20260505090419 40 215 0.0 0.0 0.00 0.02 0.02 95 1013.0
20260505085916 40 192 1.0 1.0 0.00 0.02 0.02 95 1012.9
20260505085414 40 186 1.0 1.0 0.00 0.02 0.02 95 1012.8
20260505084912 40 198 1.0 1.0 0.00 0.02 0.02 95 1013.0
20260505084410 40 215 0.0 0.0 0.00 0.02 0.02 95 1013.3
20260505083908 40 226 0.0 0.0 0.00 0.02 0.02 95 1013.4
20260505083405 40 209 0.0 1.0 0.00 0.02 0.02 95 1013.5
20260505082901 40 222 0.0 0.0 0.00 0.02 0.02 95 1013.5
20260505082357 40 222 0.0 0.0 0.00 0.02 0.02 95 1013.5
20260505081854 41 220 0.0 0.0 0.00 0.02 0.02 95 1013.7
20260505081351 41 241 0.0 0.0 0.00 0.02 0.02 95 1013.8
20260505080847 41 241 0.0 0.0 0.00 0.02 0.02 95 1013.8
20260505080343 41 241 0.0 0.0 0.00 0.02 0.02 95 1013.8
20260505075839 42 236 0.0 0.0 0.00 0.02 0.02 95 1014.2
20260505075336 41 231 0.0 0.0 0.00 0.02 0.02 95 1013.9
20260505074833 41 240 0.0 0.0 0.00 0.02 0.02 95 1014.2
20260505074330 41 237 0.0 0.0 0.00 0.02 0.02 94 1014.3
20260505073828 42 244 0.0 0.0 0.00 0.02 0.02 94 1014.2
20260505073326 42 256 0.0 0.0 0.00 0.02 0.02 94 1014.5
20260505072822 41 245 0.0 0.0 0.00 0.02 0.02 94 1014.4
20260505072319 42 272 0.0 0.0 0.00 0.02 0.02 94 1014.5
20260505071814 42 237 0.0 0.0 0.00 0.02 0.02 93 1014.4
20260505071311 42 250 0.0 0.0 0.00 0.02 0.02 93 1014.5
20260505070809 42 278 0.0 0.0 0.00 0.02 0.02 93 1014.4
20260505070305 42 236 0.0 0.0 0.05 0.02 0.02 92 1014.5
20260505065800 42 235 0.0 0.0 0.05 0.02 0.02 92 1014.7
20260505065258 42 267 0.0 0.0 0.00 0.01 0.01 92 1014.4
20260505064755 42 227 0.0 0.0 0.00 0.01 0.01 92 1014.5
20260505064252 42 239 0.0 0.0 0.00 0.01 0.01 92 1014.8
20260505063750 42 248 0.0 0.0 0.00 0.01 0.01 91 1014.7
20260505063246 42 252 0.0 0.0 0.00 0.01 0.01 91 1014.8
20260505062742 42 258 0.0 0.0 0.00 0.01 0.01 90 1014.5
20260505062240 42 242 0.0 0.0 0.00 0.01 0.01 90 1014.4
20260505061737 41 231 0.0 0.0 0.07 0.01 0.01 90 1014.7
20260505061235 41 232 0.0 0.0 0.07 0.01 0.01 89 1014.5
20260505060732 42 233 0.0 0.0 0.00 0.00 0.00 89 1014.4
20260505060229 41 232 0.0 0.0 0.00 0.00 0.00 89 1014.4
20260505055724 41 236 0.0 0.0 0.00 0.12 0.12 89 1014.8
20260505055221 41 235 0.0 0.0 0.00 0.12 0.12 89 1014.5
20260505054718 41 239 0.0 0.0 0.00 0.12 0.12 89 1015.0
20260505054216 41 258 1.0 1.0 0.00 0.12 0.12 89 1014.8
20260505053714 41 305 0.0 1.0 0.00 0.12 0.12 89 1014.8
20260505053210 41 256 0.0 0.0 0.00 0.12 0.12 89 1014.5
20260505052707 41 286 1.0 1.0 0.00 0.12 0.12 89 1014.8
20260505052204 41 306 1.0 1.0 0.00 0.12 0.12 89 1014.7
20260505051701 41 260 0.0 0.0 0.00 0.12 0.12 89 1014.7
20260505051159 41 257 0.0 0.0 0.00 0.12 0.12 89 1014.9
20260505050657 41 253 0.0 0.0 0.00 0.12 0.12 88 1014.9
20260505050155 41 242 0.0 0.0 0.00 0.12 0.12 88 1014.8
20260505041625 41 232 0.0 0.0 0.00 0.12 0.12 87 1014.7
20260505041122 41 231 0.0 0.0 0.00 0.12 0.12 86 1014.4
20260505040619 41 229 0.0 0.0 0.00 0.12 0.12 86 1014.3
20260505040116 41 248 0.0 0.0 0.00 0.12 0.12 86 1014.4
20260505035612 42 267 0.0 0.0 0.00 0.12 0.12 86 1014.3
20260505035109 41 335 2.0 3.0 0.00 0.12 0.12 86 1014.0
20260505034605 41 248 0.0 0.0 0.00 0.12 0.12 87 1014.2
20260505034102 42 245 0.0 0.0 0.00 0.12 0.12 87 1014.3
20260505033559 42 272 2.0 3.0 0.05 0.12 0.12 87 1014.4
20260505033058 42 229 0.0 0.0 0.05 0.12 0.12 87 1014.0
20260505032555 43 239 0.0 0.0 0.00 0.11 0.11 87 1014.4
20260505032051 43 247 0.0 1.0 0.07 0.11 0.11 86 1014.4
20260505031549 43 233 0.0 0.0 0.07 0.11 0.11 86 1014.5
20260505031045 43 244 0.0 0.0 0.19 0.10 0.10 85 1013.9
20260505030542 43 244 0.0 0.0 0.19 0.10 0.10 85 1013.9
20260505030038 43 270 0.0 1.0 0.19 0.08 0.08 85 1013.7
20260505025534 43 228 0.0 0.0 0.17 0.07 0.07 84 1014.5
20260505025033 43 231 0.0 0.0 0.05 0.05 0.05 84 1014.5
20260505024529 43 231 0.0 0.0 0.07 0.04 0.04 84 1014.3
20260505024026 43 237 0.0 0.0 0.07 0.04 0.04 83 1014.3
20260505023523 43 243 0.0 0.0 0.00 0.03 0.03 83 1014.2
20260505023021 43 240 0.0 0.0 0.05 0.03 0.03 82 1013.9
20260505022519 43 231 0.0 0.0 0.05 0.03 0.03 82 1014.3
20260505022016 43 227 0.0 0.0 0.00 0.02 0.02 81 1014.0
20260505021512 43 231 0.0 0.0 0.00 0.02 0.02 81 1013.8
20260505021009 44 231 0.0 0.0 0.00 0.02 0.02 81 1013.7
20260505020509 44 231 0.0 0.0 0.00 0.02 0.02 81 1013.8
20260505020006 44 228 0.0 0.0 0.00 0.02 0.02 80 1013.9
20260505015503 44 228 0.0 0.0 0.00 0.02 0.02 79 1013.8
20260505015000 44 223 0.0 0.0 0.00 0.02 0.02 79 1013.7
20260505014457 44 228 0.0 0.0 0.00 0.02 0.02 78 1013.7
20260505013954 44 235 0.0 0.0 0.00 0.02 0.02 78 1013.4
20260505013451 44 267 0.0 1.0 0.07 0.02 0.02 77 1013.3
20260505012948 45 228 0.0 0.0 0.07 0.02 0.02 76 1013.7
20260505012446 45 234 0.0 0.0 0.05 0.01 0.01 73 1013.8
20260505011943 47 236 0.0 1.0 0.05 0.01 0.01 70 1013.8
20260505011439 49 243 3.0 3.0 0.00 0.00 0.00 62 1013.5
20260505010936 50 231 1.0 1.0 0.00 0.00 0.00 49 1013.3
20260505010432 50 250 1.0 1.0 0.00 0.00 0.00 50 1013.5
20260505005928 50 232 0.0 0.0 0.00 0.00 0.00 51 1013.4
20260505005425 50 246 1.0 1.0 0.00 0.00 0.00 50 1013.2
20260505004922 51 24 3.0 4.0 0.00 0.00 0.00 49 1013.0
20260505004419 51 351 3.0 4.0 0.00 0.00 0.00 49 1012.9
20260505003916 51 351 3.0 4.0 0.00 0.00 0.00 49 1012.9
20260505003413 51 343 4.0 5.0 0.00 0.00 0.00 48 1012.6
20260505002909 51 23 4.0 5.0 0.00 0.00 0.00 49 1012.4
20260505002405 51 341 5.0 6.0 0.00 0.00 0.00 49 1012.4
20260505001904 52 356 6.0 9.0 0.00 0.00 0.00 44 1012.3
20260505001401 52 241 2.0 3.0 0.00 0.00 0.00 43 1012.6
20260505000858 52 262 2.0 3.0 0.00 0.00 0.00 43 1012.7
20260505000358 52 313 5.0 5.0 0.00 0.00 0.00 43 1012.7
20260504235852 52 269 1.0 1.0 0.00 0.00 0.00 44 1012.6
20260504235349 54 104 9.0 13.0 0.00 0.00 0.00 41 1012.4
20260504234846 55 1 5.0 6.0 0.00 0.00 0.00 37 1011.8
20260504234344 55 271 5.0 6.0 0.00 0.00 0.00 36 1012.1
20260504233840 56 196 2.0 3.0 0.00 0.00 0.00 36 1011.6
20260504233335 56 230 0.0 0.0 0.00 0.00 0.00 36 1011.9
20260504232833 57 267 1.0 3.0 0.00 0.00 0.00 35 1011.7
20260504232330 57 294 1.0 1.0 0.00 0.00 0.00 32 1011.8
20260504231826 56 349 4.0 6.0 0.00 0.00 0.00 32 1011.7
20260504231323 56 321 3.0 3.0 0.00 0.00 0.00 35 1011.8
20260504230819 56 344 4.0 4.0 0.00 0.00 0.00 36 1012.1
20260504230317 55 165 3.0 3.0 0.00 0.00 0.00 38 1011.8
20260504225816 57 158 5.0 6.0 0.00 0.00 0.00 37 1012.1
20260504225312 57 200 0.0 0.0 0.00 0.00 0.00 33 1011.7
20260504224809 57 199 1.0 1.0 0.00 0.00 0.00 32 1011.9
20260504224306 57 223 0.0 0.0 0.00 0.00 0.00 34 1011.7
20260504223802 57 176 3.0 4.0 0.00 0.00 0.00 38 1011.7
20260504223258 56 157 2.0 3.0 0.00 0.00 0.00 34 1011.6
20260504222755 58 192 3.0 4.0 0.00 0.00 0.00 39 1011.4
20260504222252 59 227 1.0 3.0 0.00 0.00 0.00 30 1011.6
20260504221750 59 233 0.0 0.0 0.00 0.00 0.00 30 1011.4
20260504221247 59 226 0.0 0.0 0.00 0.00 0.00 31 1011.6
20260504220743 59 240 0.0 1.0 0.00 0.00 0.00 30 1011.6
20260504220240 59 323 3.0 4.0 0.00 0.00 0.00 30 1011.7
20260504215738 60 222 1.0 1.0 0.00 0.00 0.00 31 1011.4
20260504215234 60 33 2.0 4.0 0.00 0.00 0.00 30 1011.2
20260504214730 61 283 3.0 4.0 0.00 0.00 0.00 27 1011.2
20260504214227 61 12 2.0 3.0 0.00 0.00 0.00 28 1011.2
20260504213723 61 336 2.0 3.0 0.00 0.00 0.00 27 1011.3
20260504213220 61 15 4.0 5.0 0.00 0.00 0.00 25 1010.9
20260504212717 61 14 5.0 6.0 0.00 0.00 0.00 24 1011.3
20260504212214 63 8 4.0 5.0 0.00 0.00 0.00 23 1011.3
20260504211711 63 233 0.0 0.0 0.00 0.00 0.00 23 1011.2
20260504211207 62 273 1.0 3.0 0.00 0.00 0.00 24 1011.3
20260504210704 62 290 2.0 3.0 0.00 0.00 0.00 23 1011.3
20260504210201 63 282 3.0 4.0 0.00 0.00 0.00 22 1011.3
20260504205658 63 15 5.0 6.0 0.00 0.00 0.00 23 1011.6
20260504205155 62 1 4.0 5.0 0.00 0.00 0.00 23 1011.7
20260504204654 62 16 4.0 5.0 0.00 0.00 0.00 25 1011.6
20260504204153 61 9 7.0 9.0 0.00 0.00 0.00 25 1011.6
20260504203651 61 347 8.0 9.0 0.00 0.00 0.00 25 1011.7
20260504203148 62 346 5.0 5.0 0.00 0.00 0.00 26 1011.7
20260504202643 62 338 6.0 8.0 0.00 0.00 0.00 26 1011.9
20260504202140 61 3 4.0 5.0 0.00 0.00 0.00 27 1011.7
20260504201637 62 336 4.0 4.0 0.00 0.00 0.00 27 1011.4
20260504201135 62 28 5.0 8.0 0.00 0.00 0.00 25 1011.6
20260504200631 62 15 5.0 5.0 0.00 0.00 0.00 26 1011.8
20260504200128 61 4 7.0 9.0 0.00 0.00 0.00 26 1011.8
20260504195624 61 359 3.0 4.0 0.00 0.00 0.00 27 1011.8
20260504195120 63 8 7.0 9.0 0.00 0.00 0.00 24 1011.8
20260504194617 63 226 0.0 0.0 0.00 0.00 0.00 20 1011.6
20260504194113 63 252 1.0 1.0 0.00 0.00 0.00 22 1011.7
20260504193609 63 229 1.0 1.0 0.00 0.00 0.00 21 1011.8
20260504193108 64 247 0.0 1.0 0.00 0.00 0.00 22 1011.8
20260504192606 64 213 0.0 1.0 0.00 0.00 0.00 23 1011.9
20260504192104 64 230 1.0 1.0 0.00 0.00 0.00 17 1011.9
20260504191602 64 230 1.0 1.0 0.00 0.00 0.00 18 1011.9
20260504191057 66 201 3.0 4.0 0.00 0.00 0.00 18 1011.7
20260504150912 57 214 1.0 3.0 0.00 0.00 0.00 31 1014.2
20260504150409 57 229 4.0 6.0 0.00 0.00 0.00 30 1014.2